Location: Fort Wayne
(41.1310°N, 85.1290°W)
Time: 17:36:34
(UTC-04:00)

OPAL - Visible Passes

Search period start: 25 March 2017 00:00
Search period end: 04 April 2017 00:00
Orbit: 743 x 795 km, 100.2° (Epoch: 24 March)

Date Brightness Start Highest point End Pass type
(mag) Time Alt. Az. Time Alt. Az. Time Alt. Az.
25 Mar 10.3 05:27:12 10° ENE 05:29:50 14° E 05:32:26 10° SE visible
25 Mar 7.5 07:04:10 10° N 07:09:09 65° WNW 07:14:03 10° SSW visible
26 Mar 8.2 06:28:45 10° NNE 06:33:42 57° ESE 06:38:34 10° S visible
27 Mar 9.7 05:53:54 10° NE 05:58:03 25° E 06:02:07 10° SSE visible
28 Mar 10.5 05:20:51 10° ENE 05:22:11 11° E 05:23:32 10° ESE visible
28 Mar 7.5 06:56:38 10° NNE 07:01:40 81° WNW 07:06:36 10° SSW visible
29 Mar 8.6 06:21:21 10° NNE 06:26:09 45° ESE 06:30:53 10° S visible
30 Mar 10.0 05:46:45 10° NE 05:50:27 20° E 05:54:05 10° SE visible
31 Mar 7.6 06:49:08 10° NNE 06:54:09 82° ESE 06:59:06 10° SSW visible
01 Apr 9.1 06:13:59 10° NNE 06:18:35 36° E 06:23:06 10° SSE visible
02 Apr 10.2 05:39:44 10° NE 05:42:49 16° E 05:45:54 10° SE visible
03 Apr 7.9 06:41:39 10° NNE 06:46:37 66° ESE 06:51:31 10° S visible
